GFSNE_sfc_thetae_036.txt.gz
Theta_e
335 337 334 334 333 335 336 334 329 321 320 330 332 335 334 335 335 331 331 333 332 330 328 329 330 332 334 336 337 338 338 339 340 339 340 341 342 342
337 335 334 333 333 335 335 337 335 330 324 329 329 329 329 328 330 326 327 327 327 326 325 324 325 327 329 330 332 333 334 335 336 336 337 337 338 340
333 334 335 336 335 335 336 335 335 334 328 329 328 326 323 322 322 323 323 322 323 324 323 322 321 321 322 323 325 327 329 330 331 332 332 333 335 335
325 330 330 333 331 332 333 333 332 333 331 326 324 321 320 320 319 319 320 321 320 323 321 320 319 319 318 318 318 317 318 321 323 324 327 329 331 331
321 324 327 330 329 330 328 328 327 327 327 328 322 322 320 320 317 317 317 316 318 321 320 320 319 318 317 316 314 312 311 312 314 316 318 320 323 325
319 320 323 325 326 327 327 327 325 323 326 325 323 322 321 319 318 313 312 314 312 314 315 315 316 317 316 315 314 312 310 309 310 311 312 312 314 318
316 319 320 323 323 324 322 324 323 319 320 320 319 319 319 317 315 314 311 311 312 312 310 310 309 309 310 311 311 312 311 311 310 310 310 309 310 312
315 315 316 316 315 319 321 324 322 316 314 316 317 316 317 315 314 312 310 309 308 314 310 307 308 306 307 307 311 310 310 310 311 310 309 309 309 309
312 311 313 313 310 306 311 312 316 320 321 321 317 317 318 318 316 313 313 312 309 311 310 307 310 306 306 308 310 309 309 309 309 309 308 308 307 306
312 310 309 309 309 304 301 300 301 306 310 311 310 310 315 318 318 317 309 307 312 312 314 306 309 307 303 302 309 309 308 308 308 308 307 306 304 304
307 307 306 307 312 311 304 303 302 301 308 311 311 312 313 314 315 314 308 310 307 310 310 307 307 307 308 307 303 308 308 307 307 307 306 305 303 303
303 302 309 305 307 309 306 305 305 303 304 304 304 305 306 307 311 308 307 306 311 308 307 301 305 305 299 306 307 303 300 306 306 305 305 304 302 299
304 301 299 304 301 301 303 302 300 298 300 302 303 300 299 301 303 302 301 305 303 302 305 305 300 299 299 300 300 301 299 299 299 300 303 302 302 300
304 303 300 299 298 299 298 301 302 301 298 299 298 297 297 297 300 303 302 302 301 302 302 303 302 302 300 298 298 301 301 301 299 298 298 301 302 303
303 302 301 299 298 299 302 301 300 297 296 295 294 293 293 295 299 302 303 301 300 302 306 303 301 300 300 300 300 302 301 302 301 300 301 300 300 298
301 299 303 301 301 301 299 298 297 297 295 294 293 294 295 294 293 295 298 300 299 300 301 302 300 297 296 296 297 298 302 301 303 303 302 302 303 303
303 298 296 296 295 296 298 296 295 295 295 293 292 293 292 292 292 294 293 294 298 297 298 299 300 300 297 296 294 294 297 298 301 302 300 297 296 300
297 295 295 298 297 297 297 295 294 295 294 293 292 291 292 290 290 291 293 292 294 295 299 300 299 298 299 299 299 293 293 297 299 298 295 293 293 298
293 295 295 295 294 295 295 294 293 292 292 294 292 292 293 293 293 293 293 293 292 294 296 295 294 295 294 294 296 301 292 291 292 294 296 294 292 295
291 292 296 295 295 296 296 295 294 293 295 293 293 294 293 294 293 293 293 290 289 290 290 295 294 293 293 294 294 294 299 292 292 291 291 292 295 301
296 296 297 297 295 296 295 294 294 294 293 292 292 292 292 293 292 292 293 295 293 289 289 291 296 301 292 292 289 290 294 300 296 292 290 290 289 290
296 296 297 297 297 297 296 294 295 295 294 293 293 293 292 293 293 292 292 292 291 290 290 292 295 293 292 291 290 291 292 294 298 303 301 298 290 287
296 296 297 298 298 297 296 296 295 295 294 294 295 295 294 294 294 293 293 293 292 292 291 291 293 293 293 293 293 291 292 293 292 291 292 301 302 302

GFSNE_sfc_thetae_039.txt.gz
Theta_e
333 333 332 332 332 333 332 331 329 322 324 331 331 332 331 332 333 329 328 331 330 328 326 327 329 331 332 334 334 335 335 337 338 338 339 340 341 341
334 334 331 331 333 334 334 333 333 328 324 330 327 327 327 327 329 325 326 326 326 325 324 324 325 326 327 328 330 331 332 333 334 334 335 336 337 339
332 334 334 333 332 334 335 335 334 333 328 325 325 324 322 322 322 322 322 321 322 324 323 322 322 322 322 322 323 324 327 329 330 331 333 334 335 335
326 330 329 333 332 332 333 332 333 334 331 322 322 320 319 320 319 319 319 320 320 323 322 321 320 319 318 317 316 316 316 319 321 323 326 329 330 332
323 326 327 329 327 326 325 325 325 327 331 324 319 321 319 319 316 316 315 315 317 319 318 320 318 318 316 315 314 312 311 312 314 315 318 321 324 326
319 322 323 324 326 327 325 323 322 327 327 323 320 318 319 318 316 313 311 313 311 313 315 314 315 316 315 315 314 313 311 310 310 311 312 312 314 318
314 316 319 324 326 326 324 322 319 321 323 321 319 319 317 315 313 314 311 310 311 312 309 309 308 308 310 311 312 313 312 312 311 310 309 309 309 311
310 309 311 313 316 320 322 324 320 315 317 319 318 317 317 315 313 312 310 309 307 313 309 306 307 306 307 308 311 311 311 311 311 310 309 309 308 309
309 307 308 308 307 306 313 315 316 320 321 320 317 317 318 316 314 312 311 313 309 310 310 307 308 304 307 308 310 309 309 309 310 309 308 307 307 306
308 308 306 305 304 302 302 302 302 307 307 310 311 313 319 319 317 316 314 309 311 311 313 306 309 304 301 301 309 308 308 308 308 308 307 306 304 304
305 306 308 308 311 309 303 301 301 302 308 312 311 311 313 314 313 311 308 308 309 310 311 307 307 306 307 307 301 308 308 307 307 307 306 305 303 302
302 301 308 307 309 307 305 305 302 301 303 304 303 302 304 306 309 306 312 308 309 307 309 300 304 305 298 306 307 304 300 305 306 305 305 304 302 298
302 299 298 303 301 302 303 301 300 299 302 302 300 297 298 300 300 300 299 304 305 305 310 302 298 302 296 296 297 300 299 298 299 299 303 302 301 300
304 300 297 299 298 299 299 301 301 300 297 298 298 295 295 296 299 300 300 300 299 300 302 303 300 300 298 296 296 299 299 299 297 297 298 301 302 303
302 302 301 298 298 298 301 301 299 295 294 293 292 292 292 293 297 299 301 299 298 300 303 300 299 299 299 299 298 299 299 300 300 299 299 299 299 298
302 300 301 300 301 300 299 297 296 294 294 293 292 292 293 292 291 292 294 297 298 298 299 301 298 296 294 295 298 299 301 301 302 301 300 300 301 301
300 297 297 297 296 295 296 294 294 293 292 291 290 291 290 289 289 291 291 291 296 296 297 297 298 297 296 296 294 295 297 299 300 302 301 300 300 300
295 295 295 297 297 297 296 294 293 294 292 291 290 290 290 290 289 289 290 290 291 292 295 297 297 296 297 298 300 294 294 297 298 299 297 297 295 296
293 292 294 293 293 294 294 294 292 291 290 293 290 290 291 292 291 291 290 290 289 290 292 292 293 294 292 290 295 302 293 292 295 295 295 293 293 294
291 292 295 294 294 294 293 293 293 292 293 292 291 292 291 292 291 291 291 289 288 287 288 289 292 292 291 291 292 294 298 291 292 292 291 293 296 300
294 294 295 296 294 294 294 293 293 292 291 291 291 291 291 291 291 291 291 294 292 287 288 288 290 300 291 290 289 289 290 300 296 293 291 291 290 290
293 294 295 297 296 295 294 293 293 293 292 292 292 292 291 291 291 292 291 290 290 289 289 290 291 291 290 289 288 289 291 293 298 302 301 298 292 289
294 295 295 295 296 296 294 294 294 294 293 293 293 293 292 292 292 292 292 291 291 290 290 290 290 291 291 292 293 291 292 292 292 293 294 301 302 302

GFSNE_sfc_thetae_045.txt.gz
Theta_e
345 346 344 349 343 342 348 346 338 329 329 333 330 331 334 334 333 332 331 330 330 328 327 327 328 328 329 331 332 333 333 335 336 337 338 342 343 342
340 340 343 346 343 348 348 345 340 334 328 332 328 328 329 329 330 328 328 327 327 326 325 324 325 325 326 326 328 329 330 332 334 335 336 336 337 338
338 338 339 344 346 347 345 347 344 340 331 325 326 325 323 322 322 323 324 323 324 324 323 322 321 321 321 322 323 324 325 327 329 331 333 335 335 335
333 335 337 340 341 344 343 340 342 336 332 324 322 319 318 319 318 318 319 320 322 322 321 320 319 318 317 317 317 317 317 320 322 325 329 329 330 330
331 332 332 335 337 339 339 338 338 337 332 325 320 320 318 318 316 316 316 316 318 319 318 318 318 317 316 316 315 313 311 313 314 316 320 322 324 323
328 330 331 333 334 336 335 334 333 331 329 323 320 318 318 317 317 314 311 314 312 313 315 315 316 316 316 316 316 315 312 310 310 311 312 312 314 316
330 329 329 327 325 327 335 335 334 329 326 322 320 319 316 315 315 315 313 313 313 317 317 315 314 314 314 315 316 315 313 312 311 310 309 309 309 311
326 326 327 328 323 319 320 321 328 332 328 325 323 320 319 319 318 316 314 316 316 322 317 312 314 312 312 313 313 313 312 312 311 310 309 308 308 308
321 320 320 322 326 327 321 322 320 320 325 330 325 324 324 323 320 316 316 318 315 314 318 315 320 315 316 313 310 310 310 310 310 309 308 307 307 306
323 321 320 319 319 324 324 322 320 319 323 323 327 326 326 325 323 321 319 317 317 319 320 313 316 315 319 317 309 309 309 309 309 308 308 306 305 304
322 322 322 319 310 312 321 320 317 313 310 311 312 312 311 312 317 326 321 316 315 316 321 317 315 313 315 314 316 309 308 308 307 307 306 306 304 304
320 321 310 317 308 309 319 317 315 316 316 315 316 315 316 313 314 319 317 315 316 317 321 315 316 318 312 317 316 316 314 307 307 306 306 305 303 313
314 314 312 303 301 301 304 319 315 319 315 315 313 312 314 314 314 316 317 314 314 316 320 320 315 312 315 315 316 315 316 314 315 311 303 303 303 305
309 308 306 300 299 301 307 301 302 308 316 317 314 309 310 310 312 315 319 317 317 316 321 321 318 315 313 311 312 314 315 315 315 314 314 308 303 304
308 306 301 299 300 303 302 302 305 311 311 309 308 308 310 312 314 315 317 318 318 318 316 320 316 315 312 310 310 313 312 314 315 313 314 313 312 312
307 306 305 306 304 307 309 310 311 310 308 308 307 308 310 309 309 310 308 308 307 311 316 318 316 314 309 310 310 309 315 313 315 314 314 314 314 314
307 310 311 312 312 312 312 312 312 311 309 308 307 306 306 306 306 308 307 306 305 305 309 314 316 316 313 312 307 309 309 310 313 314 316 312 313 315
309 312 312 312 310 310 310 310 311 308 308 308 308 307 306 306 305 306 307 305 304 305 305 308 310 309 309 312 312 307 307 307 309 312 314 309 309 313
312 312 310 310 310 311 311 310 309 310 312 309 307 307 307 306 305 305 305 305 304 305 305 306 305 304 301 300 306 307 307 307 307 306 308 309 307 309
311 311 311 312 312 312 312 312 312 312 311 309 308 307 307 306 305 305 305 304 304 304 304 305 305 304 302 301 302 306 302 308 306 304 303 308 309 305
310 312 313 314 313 313 313 313 313 312 310 309 309 308 307 307 306 306 305 298 301 304 303 303 306 298 307 307 302 303 306 301 304 306 306 304 304 304
310 311 312 313 314 315 314 314 311 311 310 309 309 309 309 308 306 305 305 304 305 305 304 306 308 308 306 304 302 303 304 306 305 302 302 303 304 301
309 310 311 312 313 313 313 312 311 310 310 309 309 308 309 307 308 307 306 306 306 305 305 305 305 306 305 304 302 302 304 305 304 304 306 303 302 302

GFSNE_sfc_thetae_051.txt.gz
Theta_e
349 352 355 357 357 358 356 350 336 329 328 332 328 333 333 335 335 335 333 331 329 328 327 327 328 328 329 329 330 330 332 334 337 338 340 341 342 340
346 348 350 357 356 356 354 354 348 342 330 331 327 328 329 330 333 330 329 328 327 326 325 324 325 325 325 326 327 328 329 332 335 336 336 335 335 335
349 348 348 352 354 357 358 352 347 343 326 323 325 324 322 321 322 324 326 324 324 324 322 322 321 321 321 322 323 324 326 327 329 331 332 332 332 332
342 344 344 350 349 352 353 349 349 349 335 321 320 318 318 319 319 319 320 323 321 322 321 320 319 319 319 319 318 318 318 320 322 324 326 326 326 326
339 338 341 345 345 343 342 339 340 338 332 324 317 320 318 318 316 317 318 319 321 322 320 319 319 318 318 317 316 314 312 313 315 316 319 321 322 322
336 336 335 337 340 344 344 342 337 331 331 326 321 318 318 318 319 316 314 318 318 321 318 322 321 319 318 318 317 315 312 311 310 311 312 312 314 316
336 333 331 329 327 328 338 340 339 328 323 320 318 317 317 316 317 321 322 323 324 325 325 322 322 323 321 318 317 315 313 312 311 310 310 309 310 311
332 333 333 330 326 324 325 325 329 337 331 325 322 321 320 323 322 324 325 323 319 329 326 321 328 324 322 318 314 313 312 311 311 310 309 309 309 309
332 332 330 330 332 331 325 325 325 325 330 337 331 330 328 330 329 325 325 325 324 323 326 319 324 323 320 314 312 312 311 311 310 310 309 308 307 307
332 330 328 328 322 327 325 322 322 323 328 328 329 329 329 332 332 330 328 327 326 325 328 320 325 321 321 316 312 311 310 310 309 309 308 307 306 306
331 326 329 324 313 313 324 319 317 314 312 314 313 313 313 314 317 323 327 321 319 321 326 324 321 321 321 314 313 312 311 310 310 309 308 307 305 305
330 324 309 315 308 308 326 324 321 321 322 321 319 316 320 317 318 325 317 312 314 318 326 320 321 319 315 320 317 313 312 309 308 308 308 307 305 308
325 320 311 306 305 307 312 326 320 318 319 321 318 317 318 318 316 318 321 316 312 316 315 317 319 318 316 314 318 317 318 309 312 309 305 304 304 306
319 314 308 303 302 303 310 305 307 308 319 318 315 313 313 313 315 316 320 319 317 318 319 322 315 314 313 310 313 318 318 315 315 315 314 308 304 305
316 308 304 301 302 305 305 306 306 315 315 313 311 311 312 314 318 320 320 323 323 321 317 318 315 318 312 310 310 315 314 316 317 317 315 313 312 311
307 308 311 310 305 311 310 312 314 313 312 311 311 312 314 313 312 312 310 311 310 314 322 321 320 317 312 311 310 309 312 312 317 317 316 316 315 316
311 314 312 315 316 315 314 315 314 314 313 314 313 312 312 312 311 313 311 310 308 309 310 317 322 324 318 319 310 311 310 310 313 319 317 313 315 316
311 313 316 317 315 314 313 312 312 311 315 315 313 312 311 311 309 311 311 309 308 309 308 310 310 309 309 316 317 311 310 310 311 316 314 309 308 314
311 317 317 315 313 314 313 314 312 313 318 315 314 313 312 311 309 310 311 310 308 309 309 310 309 308 305 303 312 308 308 308 308 309 311 311 308 309
313 317 317 315 314 314 314 314 313 314 314 314 314 313 313 311 310 309 309 310 308 308 308 310 310 309 306 304 303 308 304 311 308 307 307 309 311 310
315 317 316 316 315 315 316 317 317 315 313 312 313 313 313 311 310 310 309 304 305 308 307 308 311 311 311 312 307 306 310 305 310 311 310 306 305 305
316 315 315 316 316 317 316 316 315 314 315 315 315 313 313 312 310 310 310 309 308 308 308 310 314 313 311 308 305 309 308 310 306 306 306 306 306 301
315 315 314 315 316 317 317 316 315 314 314 314 314 313 313 311 312 311 310 309 310 309 309 308 309 309 308 308 306 306 311 308 308 307 310 305 304 304

GFSNE_sfc_thetae_054.txt.gz
Theta_e
347 348 350 349 350 346 344 340 335 326 326 329 326 331 333 335 334 331 329 330 330 328 328 328 328 327 328 329 330 330 332 335 337 339 340 340 339 339
347 347 348 351 351 347 345 345 342 336 327 328 326 327 329 330 331 328 327 327 327 325 325 324 325 325 326 326 327 329 331 333 335 335 334 334 334 335
345 344 345 347 346 347 347 345 342 336 322 321 324 323 321 321 322 323 323 322 323 324 323 322 321 322 322 323 323 325 327 328 329 330 331 331 331 331
339 338 342 345 344 344 343 341 341 339 326 318 319 317 317 318 319 319 321 322 321 322 321 320 320 319 319 319 318 318 319 321 323 324 326 326 327 327
335 335 337 340 341 341 339 337 336 332 326 320 316 318 317 317 316 317 317 319 320 322 321 319 319 319 318 317 316 314 312 313 315 316 318 320 322 323
331 330 331 331 335 341 339 334 332 329 325 319 317 316 317 318 318 315 315 317 315 320 320 320 320 320 319 318 317 315 312 311 310 311 312 312 313 316
333 329 328 328 328 329 337 334 328 324 321 318 317 316 315 315 316 318 320 322 322 323 321 318 318 318 317 318 317 315 313 312 311 310 310 310 309 310
334 332 330 329 326 325 327 326 333 327 323 321 319 318 319 322 322 322 323 320 318 326 323 320 321 319 317 312 315 313 312 311 310 310 309 309 309 308
332 329 329 326 330 329 327 326 324 326 331 332 327 326 325 326 325 322 323 323 321 322 323 318 322 318 314 313 314 313 311 310 310 309 309 308 307 307
332 330 330 325 317 325 321 316 315 316 323 326 325 327 324 323 328 326 324 323 324 324 325 316 321 316 314 312 314 313 311 310 309 309 308 307 306 305
326 320 328 324 312 314 321 317 314 311 311 313 312 313 313 314 317 320 323 321 319 320 324 319 318 316 313 311 311 313 311 310 309 308 308 307 305 305
325 317 310 312 309 310 326 321 317 316 317 317 314 314 317 314 320 320 316 311 312 317 318 316 318 317 313 314 311 310 309 309 308 308 307 306 304 301
323 315 312 307 307 308 313 326 320 318 319 322 320 320 322 319 316 319 318 315 312 312 316 316 314 316 313 313 313 311 310 308 306 306 305 304 303 304
319 314 309 304 303 304 310 306 306 308 316 320 318 315 315 314 317 317 317 317 317 315 315 316 312 311 309 308 312 315 314 313 309 309 308 306 304 305
319 310 304 301 301 306 306 307 306 314 319 315 314 313 314 313 317 318 321 320 319 319 317 316 313 312 310 308 307 311 313 313 312 312 312 309 307 305
309 309 311 312 308 313 310 312 316 315 314 314 314 314 316 315 316 312 312 312 312 315 320 318 316 313 310 309 308 306 309 309 315 315 314 313 312 311
310 313 314 315 314 315 317 319 315 315 316 316 316 314 314 314 312 314 312 312 310 309 313 317 319 318 317 314 309 310 310 310 313 315 313 311 313 313
309 314 312 314 315 316 316 316 314 314 317 316 316 314 312 312 309 312 312 310 309 309 309 311 315 313 310 314 318 310 309 306 308 310 312 309 306 311
310 314 314 319 320 317 317 316 314 316 318 318 315 312 313 313 307 311 311 311 310 309 309 311 310 308 304 300 309 309 306 306 306 305 306 306 304 306
310 312 316 318 319 318 318 316 315 317 317 315 314 313 314 312 311 310 310 310 308 308 307 310 310 309 305 303 303 306 305 306 306 305 305 306 307 310
309 310 315 320 320 320 321 321 319 315 315 315 315 315 314 313 312 311 310 305 307 308 307 307 312 313 311 311 305 305 309 305 310 308 306 304 302 302
314 314 318 321 320 322 321 319 317 314 316 315 315 315 314 313 312 311 310 309 309 308 308 310 314 310 309 307 305 306 307 310 306 307 308 307 303 299
318 318 317 319 321 322 320 318 315 315 313 315 313 316 316 313 314 312 311 310 309 308 308 307 308 309 308 308 306 305 305 306 307 306 305 305 305 304

GFSNE_sfc_thetae_057.txt.gz
Theta_e
339 340 340 340 340 340 339 336 329 326 324 328 326 331 333 332 332 328 329 331 330 328 328 327 327 328 329 329 330 332 334 336 338 337 338 339 339 339
338 338 339 339 340 339 338 337 334 329 323 326 323 324 326 328 330 326 327 328 328 326 325 325 325 326 326 327 328 330 331 333 334 333 333 333 333 334
335 336 338 339 337 338 337 336 332 326 319 320 322 321 320 321 321 322 323 322 323 324 323 323 322 323 323 323 323 325 327 328 329 329 330 330 331 331
331 330 332 339 337 336 335 331 330 325 322 316 318 317 317 318 319 319 320 322 320 323 322 321 320 320 320 319 318 318 318 321 323 324 326 327 327 327
325 325 326 331 333 331 330 329 324 322 322 318 315 317 316 317 316 317 317 318 320 323 321 320 320 320 319 317 315 313 312 313 314 316 318 320 321 321
322 323 323 324 329 329 327 325 323 320 318 316 315 315 316 317 317 315 314 314 313 318 319 318 319 320 319 318 316 315 312 310 310 311 311 311 313 316
321 321 323 328 329 331 326 321 320 319 317 316 315 315 314 314 314 314 316 312 314 314 311 315 312 311 313 317 317 315 313 312 310 310 309 308 308 310
322 322 323 325 325 325 326 328 322 317 315 314 313 311 314 314 315 316 318 315 314 319 315 313 317 312 310 308 315 313 312 311 310 309 309 308 307 307
320 321 319 319 321 318 317 319 322 325 324 318 315 314 313 317 316 320 318 317 317 316 315 315 315 310 309 311 314 312 311 310 310 309 308 308 306 305
319 320 315 311 313 311 306 304 304 311 318 322 320 317 315 316 319 317 317 314 315 317 318 309 313 311 310 310 314 313 310 309 309 308 308 306 305 304
312 315 316 308 313 315 306 303 301 301 310 313 312 312 313 314 314 313 313 314 311 313 317 314 312 313 309 306 307 313 311 309 308 308 308 306 304 303
308 305 311 308 309 312 308 304 303 305 305 305 305 307 310 314 316 309 307 304 306 310 310 313 313 310 305 307 305 308 309 308 307 306 306 305 303 298
308 304 302 307 306 307 313 314 309 311 314 310 309 310 311 310 307 306 306 306 305 304 309 309 306 307 305 304 304 305 304 302 304 303 304 303 302 301
307 305 301 303 302 303 304 304 305 306 304 306 310 307 310 308 307 305 306 306 307 306 307 307 304 302 301 300 304 305 304 305 302 302 302 303 303 304
306 305 303 301 300 302 304 305 305 303 306 303 301 301 302 302 304 307 307 308 308 310 311 309 304 303 301 300 301 304 306 307 305 304 304 303 302 300
308 304 304 303 306 307 304 304 303 303 303 302 302 302 303 305 304 301 300 304 305 306 311 309 307 305 301 301 301 299 301 303 307 306 307 307 305 304
302 302 305 303 302 302 302 303 302 302 304 303 303 303 302 302 301 302 300 301 298 303 305 308 309 308 307 305 303 302 305 302 306 307 307 305 306 309
302 304 303 303 304 304 305 305 304 307 305 304 303 302 301 299 298 300 302 299 299 299 299 305 306 306 302 303 313 304 303 298 300 305 305 303 301 302
301 302 304 304 306 309 309 305 301 305 303 306 304 302 302 303 299 299 302 300 301 298 298 299 300 299 297 295 300 309 301 299 298 297 298 299 298 299
302 302 304 309 311 307 306 306 304 303 303 306 303 303 303 301 301 301 300 300 299 298 298 299 300 302 300 297 297 299 303 298 298 297 298 299 301 306
301 302 303 305 310 309 307 307 305 305 306 304 303 305 303 306 301 302 301 303 301 299 298 298 302 308 303 302 298 298 301 305 304 301 299 298 296 296
306 304 304 306 312 311 309 307 305 302 303 303 303 304 305 303 302 303 301 301 300 299 299 301 305 303 300 299 297 297 299 303 306 307 307 305 298 294
307 309 308 310 310 311 309 307 306 306 305 305 304 307 310 306 305 303 302 302 301 300 300 298 298 299 299 300 301 298 298 298 298 300 299 304 305 306

GFSNE_sfc_thetae_060.txt.gz
Theta_e
335 336 336 336 337 338 335 335 329 324 322 326 326 329 330 330 331 328 329 331 331 328 328 328 328 328 329 331 333 333 336 336 335 335 336 336 336 337
334 335 335 335 336 336 334 333 331 327 321 325 321 323 327 328 330 326 328 329 328 327 326 326 327 326 327 328 329 330 331 332 332 332 332 332 332 332
331 332 335 335 334 334 334 333 329 325 319 319 321 320 320 320 321 322 323 322 324 325 324 324 323 323 323 323 324 325 326 327 328 329 329 330 330 331
325 328 330 335 331 330 329 326 323 322 323 317 318 317 317 319 320 319 320 321 320 323 323 322 322 321 320 319 318 318 318 321 322 324 325 325 325 324
322 323 326 329 327 326 325 321 321 324 323 319 315 317 316 317 316 317 315 318 320 322 321 321 321 320 319 317 315 313 312 313 314 315 317 319 320 320
320 322 324 326 325 324 322 319 318 321 320 317 315 315 316 317 317 314 314 314 314 317 318 318 319 320 319 317 316 315 312 310 310 310 311 311 312 315
320 322 324 329 331 327 321 317 316 315 316 316 315 315 315 314 315 316 314 313 310 311 309 310 310 309 311 316 317 315 313 312 310 309 309 308 308 309
320 318 320 323 321 325 326 323 319 315 317 317 315 314 314 316 316 315 313 315 309 313 309 308 312 308 308 307 314 313 312 311 310 310 308 307 307 307
319 315 316 317 316 314 320 323 323 322 320 315 311 311 311 314 314 316 318 312 316 313 313 312 312 309 308 309 315 313 311 310 310 309 308 307 306 305
317 313 311 310 309 308 306 306 310 315 319 321 317 317 317 318 317 316 314 313 313 314 313 308 309 311 310 307 315 312 310 309 309 308 308 306 304 303
314 313 309 309 313 309 301 299 298 300 310 313 314 313 313 314 314 315 310 312 309 310 318 315 313 312 305 304 306 314 311 308 308 308 308 306 304 303
305 307 313 309 311 307 302 303 302 301 301 302 303 307 310 309 312 307 306 305 306 306 308 315 311 311 308 304 303 306 306 308 306 306 306 305 303 298
305 303 303 307 306 307 305 305 305 306 309 305 306 307 307 305 304 303 304 306 304 303 307 309 305 305 303 303 302 302 304 302 302 302 303 302 302 301
306 303 302 303 302 304 308 305 304 306 305 307 308 306 306 307 304 303 303 304 305 304 305 304 303 300 299 298 301 303 302 302 301 301 301 302 303 304
306 304 303 300 300 301 303 304 304 302 302 303 303 303 305 307 304 303 304 304 304 306 308 305 302 300 299 298 298 299 303 304 302 302 301 304 301 299
309 304 304 302 302 304 303 302 302 301 302 300 299 299 299 301 301 300 298 302 303 303 307 307 304 302 299 299 298 297 299 300 303 302 302 303 303 302
300 299 300 302 304 300 299 300 299 300 300 301 300 300 299 301 300 299 297 298 296 300 302 306 306 304 303 302 302 301 300 300 301 303 302 302 304 305
299 298 300 302 302 300 300 301 302 303 302 302 300 299 300 297 296 297 299 296 296 297 299 302 304 304 302 301 310 303 301 299 297 302 302 302 301 301
300 299 300 301 302 302 302 303 302 301 303 302 300 299 300 299 297 297 298 298 298 296 296 297 299 302 298 295 298 310 302 297 296 295 296 297 297 299
301 299 302 302 302 304 305 306 302 300 300 303 301 300 300 299 299 299 299 297 298 296 295 296 297 298 298 297 296 299 305 301 296 295 295 296 299 305
303 300 301 302 304 306 306 307 306 303 301 302 302 300 301 300 299 299 299 299 299 297 296 296 298 305 300 298 296 297 299 303 301 297 297 296 296 294
303 302 302 303 302 304 306 304 304 302 302 302 301 302 302 302 301 302 300 299 298 297 296 297 299 299 299 298 296 295 296 300 303 306 306 304 297 294
306 305 304 302 303 305 307 306 305 305 304 305 303 301 301 301 301 301 303 299 299 298 297 295 295 297 297 297 297 295 294 294 296 296 298 304 306 305

GFSNE_sfc_thetae_066.txt.gz
Theta_e
337 339 340 341 341 342 340 339 333 323 323 323 324 329 330 331 332 330 331 333 332 330 330 330 331 332 333 334 334 334 333 334 334 334 336 336 335 334
335 338 338 338 341 341 340 338 337 331 322 323 321 324 327 328 331 328 329 330 330 329 328 327 328 329 330 330 331 331 331 331 332 331 331 331 331 331
334 336 336 337 338 338 338 337 334 328 319 319 321 322 321 321 322 323 324 324 325 327 326 326 325 325 325 326 327 328 328 328 328 328 328 328 328 326
331 333 333 334 333 334 333 331 328 328 323 317 318 318 318 320 320 320 321 322 324 325 324 323 322 321 320 320 319 319 320 321 322 323 324 324 322 322
329 330 330 330 329 328 328 326 326 326 325 319 315 318 317 318 317 319 319 318 322 324 323 322 320 319 318 317 315 314 312 313 314 315 317 318 319 318
328 329 329 329 327 326 326 327 326 324 322 319 316 316 316 317 318 315 314 317 316 319 321 321 321 320 319 317 316 314 311 310 309 310 311 311 312 314
324 327 330 330 326 325 325 325 324 322 320 318 316 316 315 315 314 317 315 315 315 316 317 317 317 317 319 318 316 314 312 311 309 308 308 307 308 309
322 322 324 326 326 324 323 323 326 322 320 318 317 315 316 317 318 316 315 314 315 318 317 316 318 315 315 315 315 313 312 311 310 308 307 306 307 306
321 321 322 322 324 324 322 322 322 323 324 325 321 320 318 320 320 317 317 318 319 318 318 315 317 316 316 315 314 313 311 310 310 308 307 306 305 304
320 318 319 320 321 322 322 321 321 321 323 323 324 322 323 324 323 323 321 318 319 318 321 318 317 317 317 315 315 313 310 309 309 308 307 305 303 302
317 316 315 318 311 313 319 316 316 315 316 316 317 316 316 316 321 323 320 319 315 320 320 320 317 317 313 314 315 313 310 308 308 308 307 306 303 303
316 315 313 313 308 307 315 315 315 312 315 315 313 312 315 318 317 323 321 318 316 317 321 320 318 317 314 314 314 314 314 309 307 306 306 305 303 308
316 314 313 309 303 302 304 310 311 308 309 312 311 310 310 310 312 313 317 318 315 316 316 322 317 316 315 313 314 313 313 313 312 310 303 303 302 305
315 314 314 305 303 301 306 304 303 308 310 311 310 310 310 309 308 310 312 314 315 315 315 316 312 315 314 311 312 312 313 313 313 312 312 307 303 304
318 311 307 301 300 304 304 305 306 312 311 310 311 311 312 313 311 310 311 311 312 313 312 312 311 308 308 309 308 308 311 313 312 312 312 312 312 312
317 311 307 307 305 307 307 308 312 312 312 312 312 314 311 310 310 309 308 310 310 310 312 312 312 311 308 309 309 309 309 310 312 313 312 312 313 313
313 307 304 303 305 305 306 307 307 307 308 308 308 308 308 308 309 306 305 306 306 307 309 311 313 312 312 311 309 310 310 310 312 311 311 312 314 314
309 307 306 302 302 304 305 305 306 305 307 307 307 307 307 307 307 305 304 305 305 306 308 310 311 311 311 313 313 312 310 310 312 311 311 310 310 314
312 307 308 304 303 304 303 304 306 306 308 307 307 307 306 306 304 304 305 305 305 306 307 307 310 310 307 304 311 311 310 309 309 308 309 310 309 312
313 311 308 306 304 304 305 303 307 308 306 307 307 306 306 305 304 304 304 306 306 306 305 305 306 309 308 306 306 311 305 312 308 308 308 307 309 306
309 308 310 308 307 307 306 307 306 308 308 307 307 307 306 306 305 306 305 302 303 306 305 305 307 308 309 308 305 307 311 304 309 311 310 307 307 307
313 312 310 309 308 308 308 306 306 307 309 308 308 309 308 307 307 307 306 305 304 306 307 309 307 306 305 305 305 308 308 310 306 306 306 306 307 302
315 314 313 312 311 309 307 308 308 309 310 311 311 311 310 307 307 308 307 307 307 307 307 307 306 305 307 306 306 306 306 306 305 305 306 305 305 305